Year,Month,Day,Hour,Minute,Value (Times are PST for temperature in C)
2013,08,27,00,00,16.40
2013,08,27,00,01,16.40
2013,08,27,00,02,16.40
2013,08,27,00,03,16.40
2013,08,27,00,04,16.50
2013,08,27,00,05,16.50
2013,08,27,00,06,16.50
2013,08,27,00,07,16.50
2013,08,27,00,08,16.50
2013,08,27,00,09,16.50
2013,08,27,00,10,16.50
2013,08,27,00,11,16.50
2013,08,27,00,12,16.50
2013,08,27,00,13,16.50
2013,08,27,00,14,16.50
2013,08,27,00,15,16.60
2013,08,27,00,16,16.60
2013,08,27,00,17,16.60
2013,08,27,00,18,16.60
2013,08,27,00,19,16.60
2013,08,27,00,20,16.60
2013,08,27,00,21,16.60
2013,08,27,00,22,16.60
2013,08,27,00,23,16.60
2013,08,27,00,24,16.60
2013,08,27,00,25,16.60
2013,08,27,00,26,16.60
2013,08,27,00,27,16.60
2013,08,27,00,28,16.60
2013,08,27,00,29,16.60
2013,08,27,00,30,16.60
2013,08,27,00,31,16.60
2013,08,27,00,32,16.60
2013,08,27,00,33,16.60
2013,08,27,00,34,16.60
2013,08,27,00,35,16.60
2013,08,27,00,36,16.60
2013,08,27,00,37,16.60
2013,08,27,00,38,16.60
2013,08,27,00,39,16.60
2013,08,27,00,40,16.60
2013,08,27,00,41,16.60
2013,08,27,00,42,16.50
2013,08,27,00,43,16.50
2013,08,27,00,44,16.50
2013,08,27,00,45,16.50
2013,08,27,00,46,16.40
2013,08,27,00,47,16.40
2013,08,27,00,48,16.40
2013,08,27,00,49,16.40
2013,08,27,00,50,16.40
2013,08,27,00,51,16.40
2013,08,27,00,52,16.30
2013,08,27,00,53,16.30
2013,08,27,00,54,16.30
2013,08,27,00,55,16.30
2013,08,27,00,56,16.30
2013,08,27,00,57,16.30
2013,08,27,00,58,16.30
2013,08,27,00,59,16.30
2013,08,27,01,00,16.20
2013,08,27,01,01,16.20
2013,08,27,01,02,16.20
2013,08,27,01,03,16.20
2013,08,27,01,04,16.20
2013,08,27,01,05,16.20
2013,08,27,01,06,16.20
2013,08,27,01,07,16.20
2013,08,27,01,08,16.10
2013,08,27,01,09,16.10
2013,08,27,01,10,16.10
2013,08,27,01,11,16.10
2013,08,27,01,12,16.10
2013,08,27,01,13,16.10
2013,08,27,01,14,16.10
2013,08,27,01,15,16.10
2013,08,27,01,16,16.00
2013,08,27,01,17,16.00
2013,08,27,01,18,16.00
2013,08,27,01,19,16.00
2013,08,27,01,20,16.00
2013,08,27,01,21,15.90
2013,08,27,01,22,15.90
2013,08,27,01,23,15.90
2013,08,27,01,24,15.90
2013,08,27,01,25,15.90
2013,08,27,01,26,15.90
2013,08,27,01,27,15.90
2013,08,27,01,28,15.90
2013,08,27,01,29,15.80
2013,08,27,01,30,15.80
2013,08,27,01,31,15.80
2013,08,27,01,32,15.80
2013,08,27,01,33,15.80
2013,08,27,01,34,15.80
2013,08,27,01,35,15.80
2013,08,27,01,36,15.80
2013,08,27,01,37,15.80
2013,08,27,01,38,15.90
2013,08,27,01,39,15.90
2013,08,27,01,40,15.90
2013,08,27,01,41,16.00
2013,08,27,01,42,16.00
2013,08,27,01,43,16.00
2013,08,27,01,44,16.10
2013,08,27,01,45,16.10
2013,08,27,01,46,16.10
2013,08,27,01,47,16.10
2013,08,27,01,48,16.10
2013,08,27,01,49,16.10
2013,08,27,01,50,16.10
2013,08,27,01,51,16.10
2013,08,27,01,52,16.10
2013,08,27,01,53,16.10
2013,08,27,01,54,16.10
2013,08,27,01,55,16.10
2013,08,27,01,56,16.10
2013,08,27,01,57,16.00
2013,08,27,01,58,16.00
2013,08,27,01,59,16.00
2013,08,27,02,00,16.00
2013,08,27,02,01,16.00
2013,08,27,02,02,16.00
2013,08,27,02,03,16.00
2013,08,27,02,04,16.00
2013,08,27,02,05,15.90
2013,08,27,02,06,15.90
2013,08,27,02,07,15.90
2013,08,27,02,08,15.90
2013,08,27,02,09,15.90
2013,08,27,02,10,15.90
2013,08,27,02,11,15.90
2013,08,27,02,12,15.90
2013,08,27,02,13,15.90
2013,08,27,02,14,15.80
2013,08,27,02,15,15.80
2013,08,27,02,16,15.80
2013,08,27,02,17,15.80
2013,08,27,02,18,15.80
2013,08,27,02,19,15.80
2013,08,27,02,20,15.80
2013,08,27,02,21,15.80
2013,08,27,02,22,15.80
2013,08,27,02,23,15.70
2013,08,27,02,24,15.70
2013,08,27,02,25,15.70
2013,08,27,02,26,15.70
2013,08,27,02,27,15.70
2013,08,27,02,28,15.70
2013,08,27,02,29,15.70
2013,08,27,02,30,15.60
2013,08,27,02,31,15.60
2013,08,27,02,32,15.60
2013,08,27,02,33,15.60
2013,08,27,02,34,15.60
2013,08,27,02,35,15.60
2013,08,27,02,36,15.60
2013,08,27,02,37,15.60
2013,08,27,02,38,15.60
2013,08,27,02,39,15.50
2013,08,27,02,40,15.60
2013,08,27,02,41,15.60
2013,08,27,02,42,15.60
2013,08,27,02,43,15.60
2013,08,27,02,44,15.60
2013,08,27,02,45,15.60
2013,08,27,02,46,15.60
2013,08,27,02,47,15.60
2013,08,27,02,48,15.60
2013,08,27,02,49,15.70
2013,08,27,02,50,15.70
2013,08,27,02,51,15.70
2013,08,27,02,52,15.70
2013,08,27,02,53,15.70
2013,08,27,02,54,15.70
2013,08,27,02,55,15.70
2013,08,27,02,56,15.70
2013,08,27,02,57,15.70
2013,08,27,02,58,15.70
2013,08,27,02,59,15.80
2013,08,27,03,00,15.80
2013,08,27,03,01,15.80
2013,08,27,03,02,15.80
2013,08,27,03,03,15.80
2013,08,27,03,04,15.80
2013,08,27,03,05,15.80
2013,08,27,03,06,15.80
2013,08,27,03,07,15.80
2013,08,27,03,08,15.80
2013,08,27,03,09,15.80
2013,08,27,03,10,15.80
2013,08,27,03,11,15.80
2013,08,27,03,12,15.80
2013,08,27,03,13,15.80
2013,08,27,03,14,15.80
2013,08,27,03,15,15.80
2013,08,27,03,16,15.80
2013,08,27,03,17,15.80
2013,08,27,03,18,15.80
2013,08,27,03,19,15.80
2013,08,27,03,20,15.80
2013,08,27,03,21,15.80
2013,08,27,03,22,15.80
2013,08,27,03,23,15.80
2013,08,27,03,24,15.80
2013,08,27,03,25,15.70
2013,08,27,03,26,15.70
2013,08,27,03,27,15.70
2013,08,27,03,28,15.70
2013,08,27,03,29,15.70
2013,08,27,03,30,15.70
2013,08,27,03,31,15.70
2013,08,27,03,32,15.70
2013,08,27,03,33,15.70
2013,08,27,03,34,15.70
2013,08,27,03,35,15.70
2013,08,27,03,36,15.70
2013,08,27,03,37,15.70
2013,08,27,03,38,15.70
2013,08,27,03,39,15.70
2013,08,27,03,40,15.70
2013,08,27,03,41,15.60
2013,08,27,03,42,15.60
2013,08,27,03,43,15.60
2013,08,27,03,44,15.60
2013,08,27,03,45,15.60
2013,08,27,03,46,15.60
2013,08,27,03,47,15.60
2013,08,27,03,48,15.60
2013,08,27,03,49,15.60
2013,08,27,03,50,15.60
2013,08,27,03,51,15.60
2013,08,27,03,52,15.60
2013,08,27,03,53,15.60
2013,08,27,03,54,15.60
2013,08,27,03,55,15.60
2013,08,27,03,56,15.60
2013,08,27,03,57,15.50
2013,08,27,03,58,15.50
2013,08,27,03,59,15.50
2013,08,27,04,00,15.50
2013,08,27,04,01,15.50
2013,08,27,04,02,15.50
2013,08,27,04,03,15.50
2013,08,27,04,04,15.50
2013,08,27,04,05,15.50
2013,08,27,04,06,15.50
2013,08,27,04,07,15.50
2013,08,27,04,08,15.50
2013,08,27,04,09,15.50
2013,08,27,04,10,15.50
2013,08,27,04,11,15.50
2013,08,27,04,12,15.50
2013,08,27,04,13,15.50
2013,08,27,04,14,15.50
2013,08,27,04,15,15.50
2013,08,27,04,16,15.50
2013,08,27,04,17,15.50
2013,08,27,04,18,15.50
2013,08,27,04,19,15.60
2013,08,27,04,20,15.60
2013,08,27,04,21,15.60
2013,08,27,04,22,15.50
2013,08,27,04,23,15.50
2013,08,27,04,24,15.50
2013,08,27,04,25,15.50
2013,08,27,04,26,15.50
2013,08,27,04,27,15.50
2013,08,27,04,28,15.50
2013,08,27,04,29,15.50
2013,08,27,04,30,15.50
2013,08,27,04,31,15.50
2013,08,27,04,32,15.50
2013,08,27,04,33,15.50
2013,08,27,04,34,15.50
2013,08,27,04,35,15.50
2013,08,27,04,36,15.40
2013,08,27,04,37,15.40
2013,08,27,04,38,15.40
2013,08,27,04,39,15.40
2013,08,27,04,40,15.40
2013,08,27,04,41,15.40
2013,08,27,04,42,15.40
2013,08,27,04,43,15.40
2013,08,27,04,44,15.40
2013,08,27,04,45,15.40
2013,08,27,04,46,15.40
2013,08,27,04,47,15.40
2013,08,27,04,48,15.40
2013,08,27,04,49,15.40
2013,08,27,04,50,15.40
2013,08,27,04,51,15.40
2013,08,27,04,52,15.30
2013,08,27,04,53,15.30
2013,08,27,04,54,15.30
2013,08,27,04,55,15.30
2013,08,27,04,56,15.30
2013,08,27,04,57,15.20
2013,08,27,04,58,15.20
2013,08,27,04,59,15.20
2013,08,27,05,00,15.20
2013,08,27,05,01,15.10
2013,08,27,05,02,15.10
2013,08,27,05,03,15.10
2013,08,27,05,04,15.10
2013,08,27,05,05,15.00
2013,08,27,05,06,15.00
2013,08,27,05,07,15.00
2013,08,27,05,08,15.00
2013,08,27,05,09,14.90
2013,08,27,05,10,14.90
2013,08,27,05,11,14.90
2013,08,27,05,12,14.90
2013,08,27,05,13,14.90
2013,08,27,05,14,14.90
2013,08,27,05,15,14.90
2013,08,27,05,16,14.90
2013,08,27,05,17,14.90
2013,08,27,05,18,14.90
2013,08,27,05,19,14.90
2013,08,27,05,20,14.90
2013,08,27,05,21,14.90
2013,08,27,05,22,14.80
2013,08,27,05,23,14.80
2013,08,27,05,24,14.80
2013,08,27,05,25,14.80
2013,08,27,05,26,14.80
2013,08,27,05,27,14.80
2013,08,27,05,28,14.80
2013,08,27,05,29,14.80
2013,08,27,05,30,14.80
2013,08,27,05,31,14.80
2013,08,27,05,32,14.80
2013,08,27,05,33,14.80
2013,08,27,05,34,14.80
2013,08,27,05,35,14.80
2013,08,27,05,36,14.80
2013,08,27,05,37,14.80
2013,08,27,05,38,14.80
2013,08,27,05,39,14.80
2013,08,27,05,40,14.80
2013,08,27,05,41,14.80
2013,08,27,05,42,14.80
2013,08,27,05,43,14.80
2013,08,27,05,44,14.80
2013,08,27,05,45,14.70
2013,08,27,05,46,14.70
2013,08,27,05,47,14.70
2013,08,27,05,48,14.70
2013,08,27,05,49,14.70
2013,08,27,05,50,14.70
2013,08,27,05,51,14.70
2013,08,27,05,52,14.70
2013,08,27,05,53,14.70
2013,08,27,05,54,14.70
2013,08,27,05,55,14.70
2013,08,27,05,56,14.70
2013,08,27,05,57,14.70
2013,08,27,05,58,14.60
2013,08,27,05,59,14.60
2013,08,27,06,00,14.60
2013,08,27,06,01,14.60
2013,08,27,06,02,14.60
2013,08,27,06,03,14.60
2013,08,27,06,04,14.60
2013,08,27,06,05,14.60
2013,08,27,06,06,14.60
2013,08,27,06,07,14.60
2013,08,27,06,08,14.50
2013,08,27,06,09,14.50
2013,08,27,06,10,14.50
2013,08,27,06,11,14.50
2013,08,27,06,12,14.50
2013,08,27,06,13,14.50
2013,08,27,06,14,14.50
2013,08,27,06,15,14.50
2013,08,27,06,16,14.50
2013,08,27,06,17,14.50
2013,08,27,06,18,14.50
2013,08,27,06,19,14.40
2013,08,27,06,20,14.40
2013,08,27,06,21,14.40
2013,08,27,06,22,14.40
2013,08,27,06,23,14.40
2013,08,27,06,24,14.40
2013,08,27,06,25,14.40
2013,08,27,06,26,14.40
2013,08,27,06,27,14.40
2013,08,27,06,28,14.40
2013,08,27,06,29,14.40
2013,08,27,06,30,14.40
2013,08,27,06,31,14.40
2013,08,27,06,32,14.40
2013,08,27,06,33,14.40
2013,08,27,06,34,14.40
2013,08,27,06,35,14.40
2013,08,27,06,36,14.40
2013,08,27,06,37,14.40
2013,08,27,06,38,14.40
2013,08,27,06,39,14.40
2013,08,27,06,40,14.30
2013,08,27,06,41,14.30
2013,08,27,06,42,14.30
2013,08,27,06,43,14.30
2013,08,27,06,44,14.30
2013,08,27,06,45,14.30
2013,08,27,06,46,14.30
2013,08,27,06,47,14.30
2013,08,27,06,48,14.30
2013,08,27,06,49,14.30
2013,08,27,06,50,14.30
2013,08,27,06,51,14.30
2013,08,27,06,52,14.30
2013,08,27,06,53,14.30
2013,08,27,06,54,14.30
2013,08,27,06,55,14.30
2013,08,27,06,56,14.30
2013,08,27,06,57,14.30
2013,08,27,06,58,14.30
2013,08,27,06,59,14.30
2013,08,27,07,00,14.30
2013,08,27,07,01,14.30
2013,08,27,07,02,14.30
2013,08,27,07,03,14.30
2013,08,27,07,04,14.30
2013,08,27,07,05,14.30
2013,08,27,07,06,14.30
2013,08,27,07,07,14.30
2013,08,27,07,08,14.30
2013,08,27,07,09,14.30
2013,08,27,07,10,14.30
2013,08,27,07,11,14.30
2013,08,27,07,12,14.30
2013,08,27,07,13,14.30
2013,08,27,07,14,14.30
2013,08,27,07,15,14.30
2013,08,27,07,16,14.30
2013,08,27,07,17,14.30
2013,08,27,07,18,14.30
2013,08,27,07,19,14.30
2013,08,27,07,20,14.30
2013,08,27,07,21,14.30
2013,08,27,07,22,14.30
2013,08,27,07,23,14.30
2013,08,27,07,24,14.30
2013,08,27,07,25,14.30
2013,08,27,07,26,14.30
2013,08,27,07,27,14.30
2013,08,27,07,28,14.30
2013,08,27,07,29,14.30
2013,08,27,07,30,14.30
2013,08,27,07,31,14.30
2013,08,27,07,32,14.30
2013,08,27,07,33,14.30
2013,08,27,07,34,14.30
2013,08,27,07,35,14.30
2013,08,27,07,36,14.30
2013,08,27,07,37,14.30
2013,08,27,07,38,14.30
2013,08,27,07,39,14.30
2013,08,27,07,40,14.30
2013,08,27,07,41,14.30
2013,08,27,07,42,14.30
2013,08,27,07,43,14.30
2013,08,27,07,44,14.30
2013,08,27,07,45,14.30
2013,08,27,07,46,14.30
2013,08,27,07,47,14.40
2013,08,27,07,48,14.40
2013,08,27,07,49,14.40
2013,08,27,07,50,14.30
2013,08,27,07,51,14.30
2013,08,27,07,52,14.40
2013,08,27,07,53,14.40
2013,08,27,07,54,14.40
2013,08,27,07,55,14.40
2013,08,27,07,56,14.40
2013,08,27,07,57,14.40
2013,08,27,07,58,14.40
2013,08,27,07,59,14.40
2013,08,27,08,00,14.40
2013,08,27,08,01,14.40
2013,08,27,08,02,14.50
2013,08,27,08,03,14.50
2013,08,27,08,04,14.50
2013,08,27,08,05,14.50
2013,08,27,08,06,14.50
2013,08,27,08,07,14.50
2013,08,27,08,08,14.60
2013,08,27,08,09,14.60
2013,08,27,08,10,14.60
2013,08,27,08,11,14.60
2013,08,27,08,12,14.60
2013,08,27,08,13,14.60
2013,08,27,08,14,14.60
2013,08,27,08,15,14.60
2013,08,27,08,16,14.70
2013,08,27,08,17,14.70
2013,08,27,08,18,14.70
2013,08,27,08,19,14.70
2013,08,27,08,20,14.70
2013,08,27,08,21,14.70
2013,08,27,08,22,14.70
2013,08,27,08,23,14.70
2013,08,27,08,24,14.70
2013,08,27,08,25,14.70
2013,08,27,08,26,14.70
2013,08,27,08,27,14.70
2013,08,27,08,28,14.70
2013,08,27,08,29,14.70
2013,08,27,08,30,14.70
2013,08,27,08,31,14.80
2013,08,27,08,32,14.80
2013,08,27,08,33,14.80
2013,08,27,08,34,14.80
2013,08,27,08,35,14.80
2013,08,27,08,36,14.80
2013,08,27,08,37,14.90
2013,08,27,08,38,14.90
2013,08,27,08,39,14.90
2013,08,27,08,40,14.90
2013,08,27,08,41,14.90
2013,08,27,08,42,14.90
2013,08,27,08,43,14.90
2013,08,27,08,44,14.90
2013,08,27,08,45,14.90
2013,08,27,08,46,14.90
2013,08,27,08,47,14.90
2013,08,27,08,48,14.90
2013,08,27,08,49,14.90
2013,08,27,08,50,14.90
2013,08,27,08,51,15.00
2013,08,27,08,52,15.00
2013,08,27,08,53,15.00
2013,08,27,08,54,15.00
2013,08,27,08,55,15.10
2013,08,27,08,56,15.10
2013,08,27,08,57,15.10
2013,08,27,08,58,15.10
2013,08,27,08,59,15.10
2013,08,27,09,00,15.10
2013,08,27,09,01,15.20
2013,08,27,09,02,15.20
2013,08,27,09,03,15.20
2013,08,27,09,04,15.20
2013,08,27,09,05,15.20
2013,08,27,09,06,15.20
2013,08,27,09,07,15.20
2013,08,27,09,08,15.20
2013,08,27,09,09,15.30
2013,08,27,09,10,15.30
2013,08,27,09,11,15.30
2013,08,27,09,12,15.30
2013,08,27,09,13,15.40
2013,08,27,09,14,15.40
2013,08,27,09,15,15.40
2013,08,27,09,16,15.50
2013,08,27,09,17,15.60
2013,08,27,09,18,15.60
2013,08,27,09,19,15.60
2013,08,27,09,20,15.60
2013,08,27,09,21,15.70
2013,08,27,09,22,15.70
2013,08,27,09,23,15.70
2013,08,27,09,24,15.70
2013,08,27,09,25,15.80
2013,08,27,09,26,15.80
2013,08,27,09,27,15.90
2013,08,27,09,28,15.90
2013,08,27,09,29,16.00
2013,08,27,09,30,16.00
2013,08,27,09,31,16.10
2013,08,27,09,32,16.10
2013,08,27,09,33,16.20
2013,08,27,09,34,16.20
2013,08,27,09,35,16.30
2013,08,27,09,36,16.30
2013,08,27,09,37,16.40
2013,08,27,09,38,16.50
2013,08,27,09,39,16.50
2013,08,27,09,40,16.60
2013,08,27,09,41,16.70
2013,08,27,09,42,16.90
2013,08,27,09,43,17.00
2013,08,27,09,44,17.20
2013,08,27,09,45,17.40
2013,08,27,09,46,17.50
2013,08,27,09,47,17.70
2013,08,27,09,48,17.80
2013,08,27,09,49,17.90
2013,08,27,09,50,18.00
2013,08,27,09,51,18.10
2013,08,27,09,52,18.10
2013,08,27,09,53,18.10
2013,08,27,09,54,18.10
2013,08,27,09,55,18.10
2013,08,27,09,56,18.20
2013,08,27,09,57,18.20
2013,08,27,09,58,18.30
2013,08,27,09,59,18.40
2013,08,27,10,00,18.50
2013,08,27,10,01,18.60
2013,08,27,10,02,18.70
2013,08,27,10,03,18.80
2013,08,27,10,04,18.90
2013,08,27,10,05,18.90
2013,08,27,10,06,19.00
2013,08,27,10,07,19.10
2013,08,27,10,08,19.20
2013,08,27,10,09,19.20
2013,08,27,10,10,19.30
2013,08,27,10,11,19.30
2013,08,27,10,12,19.40
2013,08,27,10,13,19.50
2013,08,27,10,14,19.60
2013,08,27,10,15,19.70
2013,08,27,10,16,19.70
2013,08,27,10,17,19.80
2013,08,27,10,18,19.80
2013,08,27,10,19,19.80
2013,08,27,10,20,19.80
2013,08,27,10,21,19.90
2013,08,27,10,22,19.90
2013,08,27,10,23,19.90
2013,08,27,10,24,19.90
2013,08,27,10,25,19.90
2013,08,27,10,26,20.00
2013,08,27,10,27,20.00
2013,08,27,10,28,20.10
2013,08,27,10,29,20.10
2013,08,27,10,30,20.10
2013,08,27,10,31,20.20
2013,08,27,10,32,20.20
2013,08,27,10,33,20.20
2013,08,27,10,34,20.30
2013,08,27,10,35,20.30
2013,08,27,10,36,20.30
2013,08,27,10,37,20.30
2013,08,27,10,38,20.40
2013,08,27,10,39,20.40
2013,08,27,10,40,20.40
2013,08,27,10,41,20.40
2013,08,27,10,42,20.50
2013,08,27,10,43,20.50
2013,08,27,10,44,20.50
2013,08,27,10,45,20.50
2013,08,27,10,46,20.50
2013,08,27,10,47,20.50
2013,08,27,10,48,20.50
2013,08,27,10,49,20.50
2013,08,27,10,50,20.40
2013,08,27,10,51,20.40
2013,08,27,10,52,20.40
2013,08,27,10,53,20.40
2013,08,27,10,54,20.30
2013,08,27,10,55,20.30
2013,08,27,10,56,20.30
2013,08,27,10,57,20.30
2013,08,27,10,58,20.20
2013,08,27,10,59,20.20
2013,08,27,11,00,20.10
2013,08,27,11,01,20.00
2013,08,27,11,02,19.90
2013,08,27,11,03,19.80
2013,08,27,11,04,19.80
2013,08,27,11,05,19.80
2013,08,27,11,06,19.80
2013,08,27,11,07,19.70
2013,08,27,11,08,19.70
2013,08,27,11,09,19.70
2013,08,27,11,10,19.70
2013,08,27,11,11,19.70
2013,08,27,11,12,19.70
2013,08,27,11,13,19.70
2013,08,27,11,14,19.70
2013,08,27,11,15,19.70
2013,08,27,11,16,19.70
2013,08,27,11,17,19.70
2013,08,27,11,18,19.80
2013,08,27,11,19,19.80
2013,08,27,11,20,19.90
2013,08,27,11,21,20.00
2013,08,27,11,22,20.10
2013,08,27,11,23,20.20
2013,08,27,11,24,20.20
2013,08,27,11,25,20.30
2013,08,27,11,26,20.20
2013,08,27,11,27,20.20
2013,08,27,11,28,20.10
2013,08,27,11,29,20.10
2013,08,27,11,30,20.00
2013,08,27,11,31,20.00
2013,08,27,11,32,20.00
2013,08,27,11,33,20.00
2013,08,27,11,34,19.90
2013,08,27,11,35,19.90
2013,08,27,11,36,20.00
2013,08,27,11,37,20.00
2013,08,27,11,38,20.00
2013,08,27,11,39,20.10
2013,08,27,11,40,20.10
2013,08,27,11,41,20.10
2013,08,27,11,42,20.10
2013,08,27,11,43,20.10
2013,08,27,11,44,20.00
2013,08,27,11,45,19.90
2013,08,27,11,46,19.90
2013,08,27,11,47,19.90
2013,08,27,11,48,19.90
2013,08,27,11,49,19.90
2013,08,27,11,50,19.90
2013,08,27,11,51,19.90
2013,08,27,11,52,20.00
2013,08,27,11,53,20.10
2013,08,27,11,54,20.20
2013,08,27,11,55,20.30
2013,08,27,11,56,20.40
2013,08,27,11,57,20.50
2013,08,27,11,58,20.60
2013,08,27,11,59,20.80
2013,08,27,12,00,20.80
2013,08,27,12,01,20.80
2013,08,27,12,02,20.70
2013,08,27,12,03,20.70
2013,08,27,12,04,20.70
2013,08,27,12,05,20.70
2013,08,27,12,06,20.70
2013,08,27,12,07,20.70
2013,08,27,12,08,20.70
2013,08,27,12,09,20.70
2013,08,27,12,10,20.80
2013,08,27,12,11,20.80
2013,08,27,12,12,20.90
2013,08,27,12,13,21.00
2013,08,27,12,14,21.10
2013,08,27,12,15,21.10
2013,08,27,12,16,21.10
2013,08,27,12,17,21.10
2013,08,27,12,18,21.10
2013,08,27,12,19,21.00
2013,08,27,12,20,20.90
2013,08,27,12,21,20.80
2013,08,27,12,22,20.70
2013,08,27,12,23,20.70
2013,08,27,12,24,20.70
2013,08,27,12,25,20.70
2013,08,27,12,26,20.70
2013,08,27,12,27,20.70
2013,08,27,12,28,20.70
2013,08,27,12,29,20.80
2013,08,27,12,30,20.80
2013,08,27,12,31,20.90
2013,08,27,12,32,20.90
2013,08,27,12,33,20.90
2013,08,27,12,34,21.00
2013,08,27,12,35,21.10
2013,08,27,12,36,21.10
2013,08,27,12,37,21.10
2013,08,27,12,38,21.10
2013,08,27,12,39,21.10
2013,08,27,12,40,21.10
2013,08,27,12,41,21.00
2013,08,27,12,42,20.90
2013,08,27,12,43,20.90
2013,08,27,12,44,20.90
2013,08,27,12,45,20.80
2013,08,27,12,46,20.80
2013,08,27,12,47,20.80
2013,08,27,12,48,20.80
2013,08,27,12,49,20.90
2013,08,27,12,50,20.90
2013,08,27,12,51,21.00
2013,08,27,12,52,21.00
2013,08,27,12,53,21.00
2013,08,27,12,54,20.90
2013,08,27,12,55,20.80
2013,08,27,12,56,20.70
2013,08,27,12,57,20.60
2013,08,27,12,58,20.50
2013,08,27,12,59,20.50
2013,08,27,13,00,20.40
2013,08,27,13,01,20.30
2013,08,27,13,02,20.30
2013,08,27,13,03,20.30
2013,08,27,13,04,20.30
2013,08,27,13,05,20.30
2013,08,27,13,06,20.30
2013,08,27,13,07,20.30
2013,08,27,13,08,20.30
2013,08,27,13,09,20.30
2013,08,27,13,10,20.20
2013,08,27,13,11,20.20
2013,08,27,13,12,20.20
2013,08,27,13,13,20.20
2013,08,27,13,14,20.10
2013,08,27,13,15,20.10
2013,08,27,13,16,20.00
2013,08,27,13,17,20.00
2013,08,27,13,18,20.00
2013,08,27,13,19,20.00
2013,08,27,13,20,19.90
2013,08,27,13,21,19.90
2013,08,27,13,22,19.90
2013,08,27,13,23,19.90
2013,08,27,13,24,19.90
2013,08,27,13,25,19.90
2013,08,27,13,26,19.80
2013,08,27,13,27,19.80
2013,08,27,13,28,19.80
2013,08,27,13,29,19.70
2013,08,27,13,30,19.70
2013,08,27,13,31,19.60
2013,08,27,13,32,19.60
2013,08,27,13,33,19.60
2013,08,27,13,34,19.60
2013,08,27,13,35,19.60
2013,08,27,13,36,19.50
2013,08,27,13,37,19.50
2013,08,27,13,38,19.50
2013,08,27,13,39,19.40
2013,08,27,13,40,19.40
2013,08,27,13,41,19.40
2013,08,27,13,42,19.40
2013,08,27,13,43,19.40
2013,08,27,13,44,19.50
2013,08,27,13,45,19.50
2013,08,27,13,46,19.60
2013,08,27,13,47,19.60
2013,08,27,13,48,19.60
2013,08,27,13,49,19.70
2013,08,27,13,50,19.70
2013,08,27,13,51,19.70
2013,08,27,13,52,19.70
2013,08,27,13,53,19.80
2013,08,27,13,54,19.80
2013,08,27,13,55,19.80
2013,08,27,13,56,19.80
2013,08,27,13,57,19.70
2013,08,27,13,58,19.70
2013,08,27,13,59,19.70
2013,08,27,14,00,19.80
2013,08,27,14,01,19.80
2013,08,27,14,02,19.80
2013,08,27,14,03,19.80
2013,08,27,14,04,19.80
2013,08,27,14,05,19.80
2013,08,27,14,06,19.90
2013,08,27,14,07,19.90
2013,08,27,14,08,19.90
2013,08,27,14,09,19.90
2013,08,27,14,10,19.90
2013,08,27,14,11,19.80
2013,08,27,14,12,19.80
2013,08,27,14,13,19.80
2013,08,27,14,14,19.80
2013,08,27,14,15,19.80
2013,08,27,14,16,19.80
2013,08,27,14,17,19.80
2013,08,27,14,18,19.80
2013,08,27,14,19,19.90
2013,08,27,14,20,19.90
2013,08,27,14,21,19.90
2013,08,27,14,22,19.90
2013,08,27,14,23,19.90
2013,08,27,14,24,19.90
2013,08,27,14,25,19.90
2013,08,27,14,26,20.00
2013,08,27,14,27,20.00
2013,08,27,14,28,20.00
2013,08,27,14,29,20.00
2013,08,27,14,30,20.10
2013,08,27,14,31,20.10
2013,08,27,14,32,20.10
2013,08,27,14,33,20.00
2013,08,27,14,34,20.00
2013,08,27,14,35,20.00
2013,08,27,14,36,20.00
2013,08,27,14,37,19.90
2013,08,27,14,38,19.90
2013,08,27,14,39,19.90
2013,08,27,14,40,19.90
2013,08,27,14,41,19.90
2013,08,27,14,42,19.90
2013,08,27,14,43,19.90
2013,08,27,14,44,19.90
2013,08,27,14,45,19.80
2013,08,27,14,46,19.80
2013,08,27,14,47,19.80
2013,08,27,14,48,19.70
2013,08,27,14,49,19.70
2013,08,27,14,50,19.70
2013,08,27,14,51,19.60
2013,08,27,14,52,19.60
2013,08,27,14,53,19.60
2013,08,27,14,54,19.60
2013,08,27,14,55,19.50
2013,08,27,14,56,19.50
2013,08,27,14,57,19.50
2013,08,27,14,58,19.40
2013,08,27,14,59,19.40
2013,08,27,15,00,19.40
2013,08,27,15,01,19.40
2013,08,27,15,02,19.40
2013,08,27,15,03,19.40
2013,08,27,15,04,19.40
2013,08,27,15,05,19.40
2013,08,27,15,06,19.50
2013,08,27,15,07,19.50
2013,08,27,15,08,19.50
2013,08,27,15,09,19.50
2013,08,27,15,10,19.60
2013,08,27,15,11,19.60
2013,08,27,15,12,19.50
2013,08,27,15,13,19.60
2013,08,27,15,14,19.50
2013,08,27,15,15,19.50
2013,08,27,15,16,19.50
2013,08,27,15,17,19.50
2013,08,27,15,18,19.50
2013,08,27,15,19,19.40
2013,08,27,15,20,19.40
2013,08,27,15,21,19.40
2013,08,27,15,22,19.40
2013,08,27,15,23,19.30
2013,08,27,15,24,19.30
2013,08,27,15,25,19.30
2013,08,27,15,26,19.30
2013,08,27,15,27,19.30
2013,08,27,15,28,19.30
2013,08,27,15,29,19.30
2013,08,27,15,30,19.30
2013,08,27,15,31,19.20
2013,08,27,15,32,19.20
2013,08,27,15,33,19.20
2013,08,27,15,34,19.20
2013,08,27,15,35,19.10
2013,08,27,15,36,19.10
2013,08,27,15,37,19.10
2013,08,27,15,38,19.00
2013,08,27,15,39,19.00
2013,08,27,15,40,18.90
2013,08,27,15,41,18.90
2013,08,27,15,42,18.90
2013,08,27,15,43,18.90
2013,08,27,15,44,18.80
2013,08,27,15,45,18.80
2013,08,27,15,46,18.80
2013,08,27,15,47,18.80
2013,08,27,15,48,18.70
2013,08,27,15,49,18.70
2013,08,27,15,50,18.70
2013,08,27,15,51,18.60
2013,08,27,15,52,18.60
2013,08,27,15,53,18.60
2013,08,27,15,54,18.50
2013,08,27,15,55,18.40
2013,08,27,15,56,18.30
2013,08,27,15,57,18.30
2013,08,27,15,58,18.30
2013,08,27,15,59,18.30
2013,08,27,16,00,18.30
2013,08,27,16,01,18.20
2013,08,27,16,02,18.20
2013,08,27,16,03,18.20
2013,08,27,16,04,18.20
2013,08,27,16,05,18.20
2013,08,27,16,06,18.20
2013,08,27,16,07,18.20
2013,08,27,16,08,18.20
2013,08,27,16,09,18.20
2013,08,27,16,10,18.30
2013,08,27,16,11,18.30
2013,08,27,16,12,18.30
2013,08,27,16,13,18.30
2013,08,27,16,14,18.30
2013,08,27,16,15,18.30
2013,08,27,16,16,18.30
2013,08,27,16,17,18.30
2013,08,27,16,18,18.30
2013,08,27,16,19,18.40
2013,08,27,16,20,18.40
2013,08,27,16,21,18.40
2013,08,27,16,22,18.40
2013,08,27,16,23,18.40
2013,08,27,16,24,18.40
2013,08,27,16,25,18.40
2013,08,27,16,26,18.40
2013,08,27,16,27,18.40
2013,08,27,16,28,18.40
2013,08,27,16,29,18.40
2013,08,27,16,30,18.40
2013,08,27,16,31,18.40
2013,08,27,16,32,18.30
2013,08,27,16,33,18.30
2013,08,27,16,34,18.20
2013,08,27,16,35,18.20
2013,08,27,16,36,18.20
2013,08,27,16,37,18.10
2013,08,27,16,38,18.10
2013,08,27,16,39,18.10
2013,08,27,16,40,18.00
2013,08,27,16,41,18.00
2013,08,27,16,42,18.00
2013,08,27,16,43,18.00
2013,08,27,16,44,18.00
2013,08,27,16,45,17.90
2013,08,27,16,46,17.90
2013,08,27,16,47,17.90
2013,08,27,16,48,18.00
2013,08,27,16,49,18.00
2013,08,27,16,50,18.00
2013,08,27,16,51,18.10
2013,08,27,16,52,18.10
2013,08,27,16,53,18.10
2013,08,27,16,54,18.10
2013,08,27,16,55,18.10
2013,08,27,16,56,18.20
2013,08,27,16,57,18.20
2013,08,27,16,58,18.20
2013,08,27,16,59,18.30
2013,08,27,17,00,18.30
2013,08,27,17,01,18.30
2013,08,27,17,02,18.40
2013,08,27,17,03,18.40
2013,08,27,17,04,18.40
2013,08,27,17,05,18.50
2013,08,27,17,06,18.50
2013,08,27,17,07,18.60
2013,08,27,17,08,18.60
2013,08,27,17,09,18.60
2013,08,27,17,10,18.60
2013,08,27,17,11,18.70
2013,08,27,17,12,18.70
2013,08,27,17,13,18.70
2013,08,27,17,14,18.70
2013,08,27,17,15,18.70
2013,08,27,17,16,18.70
2013,08,27,17,17,18.70
2013,08,27,17,18,18.70
2013,08,27,17,19,18.70